WAT2918 DTTA-LEBL

Flight info

Callsign WAT2918
Flight time 1h 26m
Altitude 34000
Route TOBIB2A TOBIB A725 TANIT UA725 OSMAR DCT LUNAM DCT ALG DCT GINOX DCT KIFMI/N0433F280 DCT ELVOP DCT MUREN DCT CHELY DCT VERSO
Aircraft A320/M-SDE3FGHIRWY/LB1

Departure

Time 2026-05-06 21:48
Airport Tunis Carthage International Airport (DTTA)

Arrival

Time 2026-05-06 23:15
Airport Josep Tarradellas Barcelona-El Prat Airport (LEBL)
Time Latitude Longitude Altitude Speed Heading
2026-05-06 21:39 36.83986 10.21962 13 ft 0 kts
2026-05-06 21:45 36.83991 10.21961 13 ft 0 kts 333°
2026-05-06 21:45 36.83992 10.21956 13 ft 0 kts 273°
2026-05-06 21:45 36.83991 10.21944 13 ft 1 kts 253°
2026-05-06 21:46 36.83977 10.21930 13 ft 3 kts 204°
2026-05-06 21:46 36.83940 10.21934 13 ft 7 kts 155°
2026-05-06 21:46 36.83894 10.21987 11 ft 10 kts 121°
2026-05-06 21:46 36.83872 10.22081 10 ft 11 kts 92°
2026-05-06 21:47 36.83874 10.22189 9 ft 13 kts 84°
2026-05-06 21:47 36.83908 10.22294 9 ft 13 kts 57°
2026-05-06 21:47 36.83971 10.22381 9 ft 13 kts 38°
2026-05-06 21:47 36.84003 10.22401 9 ft 0 kts 11°
2026-05-06 21:48 36.84053 10.22413 9 ft 33 kts 11°
2026-05-06 21:48 36.84564 10.22547 10 ft 112 kts 12°
2026-05-06 21:48 36.85498 10.22819 221 ft 151 kts 13°
2026-05-06 21:48 36.86501 10.23024 968 ft 152 kts
2026-05-06 21:49 36.87557 10.22761 1701 ft 159 kts 345°
2026-05-06 21:49 36.88610 10.22206 2159 ft 173 kts 348°
2026-05-06 21:49 36.89819 10.21753 2607 ft 191 kts 349°
2026-05-06 21:49 36.91149 10.21306 3118 ft 208 kts 349°
2026-05-06 21:50 36.92605 10.20836 3638 ft 225 kts 348°
2026-05-06 21:50 36.94170 10.20334 4162 ft 243 kts 348°
2026-05-06 21:50 36.95880 10.19794 4712 ft 262 kts 348°
2026-05-06 21:50 36.97718 10.19215 5255 ft 280 kts 347°
2026-05-06 21:51 36.99607 10.18622 5966 ft 289 kts 348°
2026-05-06 21:51 37.01575 10.18004 6769 ft 295 kts 347°
2026-05-06 21:51 37.03565 10.17386 7589 ft 300 kts 346°
2026-05-06 21:51 37.05606 10.16751 8420 ft 304 kts 345°
2026-05-06 21:52 37.07648 10.16114 9257 ft 307 kts 344°
2026-05-06 21:52 37.09744 10.15459 10050 ft 312 kts 343°
2026-05-06 21:52 37.11868 10.14793 10677 ft 322 kts 343°
2026-05-06 21:52 37.14099 10.14093 11066 ft 339 kts 343°
2026-05-06 21:53 37.16444 10.13357 11498 ft 355 kts 343°
2026-05-06 21:53 37.18858 10.12603 12134 ft 361 kts 343°
2026-05-06 21:53 37.21293 10.11842 12909 ft 364 kts 343°
2026-05-06 21:53 37.23748 10.11078 13671 ft 367 kts 343°
2026-05-06 21:54 37.26224 10.10302 14392 ft 369 kts 342°
2026-05-06 21:54 37.28741 10.09513 15094 ft 372 kts 342°
2026-05-06 21:54 37.31250 10.08723 15786 ft 375 kts 342°
2026-05-06 21:54 37.33783 10.07927 16458 ft 378 kts 342°
2026-05-06 21:55 37.36319 10.07129 17142 ft 380 kts 342°
2026-05-06 21:55 37.38895 10.06317 17785 ft 382 kts 342°
2026-05-06 21:55 37.41479 10.05504 18387 ft 386 kts 341°
2026-05-06 21:55 37.44103 10.04673 19002 ft 389 kts 342°
2026-05-06 21:56 37.46715 10.03849 19622 ft 391 kts 341°
2026-05-06 21:56 37.49350 10.03015 20192 ft 394 kts 341°
2026-05-06 21:56 37.52036 10.02161 20768 ft 397 kts 341°
2026-05-06 21:56 37.54728 10.01311 21326 ft 400 kts 341°
2026-05-06 21:57 37.57442 10.00450 21909 ft 402 kts 341°
2026-05-06 21:57 37.60149 9.99590 22441 ft 405 kts 341°
2026-05-06 21:57 37.62884 9.98721 22953 ft 408 kts 341°
2026-05-06 21:57 37.65652 9.97841 23484 ft 410 kts 341°
2026-05-06 21:58 37.68417 9.96964 24006 ft 412 kts 341°
2026-05-06 21:58 37.71184 9.96085 24486 ft 414 kts 340°
2026-05-06 21:58 37.73976 9.95195 24945 ft 417 kts 340°
2026-05-06 21:58 37.76823 9.94289 25399 ft 420 kts 340°
2026-05-06 21:59 37.79647 9.93390 25865 ft 422 kts 340°
2026-05-06 21:59 37.82502 9.92483 26310 ft 424 kts 340°
2026-05-06 21:59 37.85387 9.91559 26707 ft 427 kts 340°
2026-05-06 21:59 37.88265 9.90640 27102 ft 429 kts 339°
2026-05-06 22:00 37.91155 9.89719 27485 ft 432 kts 339°
2026-05-06 22:00 37.94092 9.88776 27856 ft 435 kts 340°
2026-05-06 22:00 37.97039 9.87833 28217 ft 437 kts 340°
2026-05-06 22:00 37.99985 9.86892 28586 ft 440 kts 340°
2026-05-06 22:01 38.02960 9.85939 28991 ft 440 kts 340°
2026-05-06 22:01 38.05918 9.84994 29499 ft 438 kts 339°
2026-05-06 22:01 38.08840 9.84061 30002 ft 436 kts 339°
2026-05-06 22:01 38.11801 9.83113 30461 ft 435 kts 339°
2026-05-06 22:02 38.14727 9.82186 30976 ft 432 kts 338°
2026-05-06 22:02 38.17628 9.81262 31491 ft 427 kts 336°
2026-05-06 22:02 38.20493 9.80345 31983 ft 424 kts 336°
2026-05-06 22:02 38.23298 9.79353 32427 ft 417 kts 333°
2026-05-06 22:03 38.26033 9.78178 32837 ft 411 kts 329°
2026-05-06 22:03 38.28683 9.76824 33199 ft 405 kts 325°
2026-05-06 22:03 38.31221 9.75350 33467 ft 404 kts 324°
2026-05-06 22:03 38.33749 9.73835 33765 ft 404 kts 324°
2026-05-06 22:04 38.36299 9.72301 33936 ft 406 kts 324°
2026-05-06 22:04 38.38855 9.70762 33942 ft 405 kts 324°
2026-05-06 22:04 38.43948 9.67695 33974 ft 407 kts 324°
2026-05-06 22:05 38.49107 9.64592 33954 ft 412 kts 324°
2026-05-06 22:05 38.54288 9.61476 33967 ft 414 kts 325°
2026-05-06 22:06 38.59494 9.58348 33966 ft 413 kts 325°
2026-05-06 22:06 38.64696 9.55203 33975 ft 416 kts 326°
2026-05-06 22:07 38.69918 9.52046 33978 ft 417 kts 327°
2026-05-06 22:07 38.75165 9.48871 33953 ft 419 kts 327°
2026-05-06 22:08 38.80425 9.45686 33978 ft 421 kts 328°
2026-05-06 22:08 38.85730 9.42466 33973 ft 422 kts 328°
2026-05-06 22:09 38.91033 9.39247 33970 ft 424 kts 328°
2026-05-06 22:09 38.96376 9.35990 33967 ft 426 kts 329°
2026-05-06 22:10 39.01749 9.32699 33957 ft 427 kts 328°
2026-05-06 22:10 39.07093 9.29413 33970 ft 427 kts 329°
2026-05-06 22:11 39.12431 9.26146 33969 ft 427 kts 329°
2026-05-06 22:11 39.17830 9.22853 33963 ft 428 kts 329°
2026-05-06 22:12 39.23215 9.19554 33966 ft 428 kts 329°
2026-05-06 22:12 39.28578 9.16258 33976 ft 429 kts 329°
2026-05-06 22:13 39.33970 9.12934 33971 ft 430 kts 329°
2026-05-06 22:13 39.39339 9.09617 33968 ft 430 kts 329°
2026-05-06 22:14 39.44761 9.06263 33973 ft 431 kts 329°
2026-05-06 22:14 39.50175 9.02906 33970 ft 432 kts 329°
2026-05-06 22:15 39.55598 8.99541 33969 ft 432 kts 329°
2026-05-06 22:15 39.60998 8.96184 33973 ft 433 kts 329°
2026-05-06 22:16 39.66355 8.92586 33966 ft 432 kts 327°
2026-05-06 22:16 39.71653 8.88892 33972 ft 432 kts 327°
2026-05-06 22:17 39.76939 8.85199 33968 ft 433 kts 327°
2026-05-06 22:17 39.82242 8.81492 33967 ft 433 kts 327°
2026-05-06 22:18 39.87534 8.77788 33971 ft 433 kts 327°
2026-05-06 22:18 39.92849 8.74060 33959 ft 434 kts 327°
2026-05-06 22:19 39.98150 8.70336 33959 ft 434 kts 327°
2026-05-06 22:19 40.03465 8.66601 33960 ft 435 kts 327°
2026-05-06 22:20 40.08789 8.62849 33962 ft 435 kts 327°
2026-05-06 22:20 40.14108 8.59108 33958 ft 434 kts 327°
2026-05-06 22:21 40.19434 8.55362 33964 ft 434 kts 327°
2026-05-06 22:21 40.24722 8.51620 33964 ft 432 kts 326°
2026-05-06 22:22 40.29998 8.47875 33963 ft 431 kts 326°
2026-05-06 22:22 40.35244 8.44140 33963 ft 431 kts 326°
2026-05-06 22:23 40.40499 8.40394 33964 ft 431 kts 326°
2026-05-06 22:23 40.45759 8.36637 33966 ft 430 kts 326°
2026-05-06 22:24 40.51026 8.32852 33967 ft 430 kts 325°
2026-05-06 22:24 40.56239 8.29098 33965 ft 429 kts 324°
2026-05-06 22:25 40.61457 8.25229 33961 ft 427 kts 322°
2026-05-06 22:25 40.66267 8.20812 33968 ft 421 kts 316°
2026-05-06 22:26 40.70866 8.16038 33975 ft 420 kts 315°
2026-05-06 22:26 40.75418 8.11279 33976 ft 419 kts 315°
2026-05-06 22:27 40.79966 8.06450 33966 ft 416 kts 311°
2026-05-06 22:27 40.83629 8.00735 33969 ft 404 kts 296°
2026-05-06 22:28 40.86015 7.94150 33968 ft 394 kts 283°
2026-05-06 22:28 40.87093 7.87184 33973 ft 388 kts 272°
2026-05-06 22:29 40.87596 7.80079 33972 ft 388 kts 271°
2026-05-06 22:29 40.88072 7.73030 33972 ft 386 kts 271°
2026-05-06 22:30 40.88546 7.65963 33970 ft 386 kts 271°
2026-05-06 22:30 40.89015 7.58924 33969 ft 386 kts 272°
2026-05-06 22:31 40.89480 7.51904 33972 ft 385 kts 271°
2026-05-06 22:31 40.89943 7.44845 33976 ft 386 kts 271°
2026-05-06 22:32 40.90405 7.37671 33975 ft 399 kts 271°
2026-05-06 22:32 40.90873 7.30323 33974 ft 409 kts 271°
2026-05-06 22:33 40.91355 7.22727 33972 ft 418 kts 271°
2026-05-06 22:33 40.91842 7.15029 33973 ft 419 kts 271°
2026-05-06 22:34 40.92321 7.07341 33974 ft 419 kts 271°
2026-05-06 22:34 40.92794 6.99671 33975 ft 418 kts 271°
2026-05-06 22:35 40.93266 6.91925 33976 ft 418 kts 271°
2026-05-06 22:35 40.93726 6.84293 33976 ft 418 kts 271°
2026-05-06 22:36 40.94184 6.76587 33977 ft 418 kts 271°
2026-05-06 22:36 40.94632 6.68958 33975 ft 418 kts 271°
2026-05-06 22:37 40.95081 6.61257 33974 ft 418 kts 271°
2026-05-06 22:37 40.95524 6.53578 33971 ft 417 kts 271°
2026-05-06 22:38 40.95958 6.45936 33968 ft 416 kts 271°
2026-05-06 22:38 40.96388 6.38265 33969 ft 415 kts 271°
2026-05-06 22:39 40.96811 6.30631 33970 ft 414 kts 270°
2026-05-06 22:39 40.97229 6.23015 33963 ft 414 kts 270°
2026-05-06 22:40 40.97642 6.15411 33957 ft 414 kts 270°
2026-05-06 22:40 40.98051 6.07769 33957 ft 413 kts 270°
2026-05-06 22:41 40.98653 5.96356 33959 ft 413 kts 270°
2026-05-06 22:42 40.99047 5.88751 33955 ft 413 kts 270°
2026-05-06 22:42 40.99438 5.81148 33958 ft 413 kts 270°
2026-05-06 22:43 40.99821 5.73565 33960 ft 413 kts 270°
2026-05-06 22:43 41.00201 5.65925 33960 ft 414 kts 270°
2026-05-06 22:44 41.00575 5.58319 33956 ft 413 kts 270°
2026-05-06 22:44 41.00947 5.50724 33959 ft 413 kts 270°
2026-05-06 22:45 41.01310 5.43126 33961 ft 412 kts 270°
2026-05-06 22:45 41.01683 5.35487 33960 ft 413 kts 271°
2026-05-06 22:46 41.02084 5.27887 33959 ft 413 kts 270°
2026-05-06 22:46 41.02479 5.20299 33961 ft 413 kts 270°
2026-05-06 22:47 41.02869 5.12696 33959 ft 412 kts 270°
2026-05-06 22:47 41.03250 5.05148 33963 ft 412 kts 270°
2026-05-06 22:48 41.03628 4.97591 33958 ft 412 kts 270°
2026-05-06 22:48 41.04001 4.90027 33965 ft 413 kts 270°
2026-05-06 22:49 41.04369 4.82439 33961 ft 413 kts 270°
2026-05-06 22:49 41.04893 4.74869 33969 ft 415 kts 274°
2026-05-06 22:50 41.05672 4.67315 33793 ft 407 kts 274°
2026-05-06 22:50 41.06062 4.63668 33257 ft 401 kts 274°
2026-05-06 22:50 41.06458 4.60048 32651 ft 397 kts 274°
2026-05-06 22:50 41.06853 4.56417 32005 ft 394 kts 274°
2026-05-06 22:51 41.07239 4.52831 31350 ft 392 kts 274°
2026-05-06 22:51 41.07621 4.49286 30698 ft 390 kts 274°
2026-05-06 22:51 41.08001 4.45732 30045 ft 388 kts 274°
2026-05-06 22:51 41.08377 4.42216 29346 ft 387 kts 275°
2026-05-06 22:52 41.08751 4.38700 28630 ft 388 kts 275°
2026-05-06 22:52 41.09125 4.35166 28078 ft 383 kts 275°
2026-05-06 22:52 41.09494 4.31686 27607 ft 379 kts 274°
2026-05-06 22:52 41.09853 4.28287 27128 ft 375 kts 274°
2026-05-06 22:53 41.10216 4.24889 26650 ft 371 kts 274°
2026-05-06 22:53 41.10583 4.21518 26182 ft 367 kts 274°
2026-05-06 22:53 41.10945 4.18167 25721 ft 364 kts 275°
2026-05-06 22:53 41.11292 4.14902 25268 ft 361 kts 275°
2026-05-06 22:54 41.11642 4.11587 24799 ft 358 kts 274°
2026-05-06 22:54 41.11983 4.08328 24349 ft 355 kts 275°
2026-05-06 22:54 41.12318 4.05094 23900 ft 352 kts 275°
2026-05-06 22:54 41.12653 4.01866 23456 ft 350 kts 275°
2026-05-06 22:55 41.12979 3.98693 23017 ft 348 kts 275°
2026-05-06 22:55 41.13305 3.95516 22576 ft 346 kts 275°
2026-05-06 22:55 41.13625 3.92381 22140 ft 345 kts 275°
2026-05-06 22:55 41.13944 3.89240 21699 ft 343 kts 275°
2026-05-06 22:56 41.14262 3.86109 21257 ft 342 kts 275°
2026-05-06 22:56 41.14577 3.82989 20821 ft 340 kts 275°
2026-05-06 22:56 41.14887 3.79927 20393 ft 338 kts 275°
2026-05-06 22:56 41.15198 3.76840 19957 ft 336 kts 276°
2026-05-06 22:57 41.15509 3.73769 19899 ft 335 kts 276°
2026-05-06 22:57 41.15821 3.70704 19857 ft 336 kts 276°
2026-05-06 22:57 41.16128 3.67668 19403 ft 336 kts 276°
2026-05-06 22:57 41.16433 3.64619 18954 ft 334 kts 276°
2026-05-06 22:58 41.16740 3.61558 18524 ft 332 kts 276°
2026-05-06 22:58 41.17038 3.58557 18105 ft 330 kts 276°
2026-05-06 22:58 41.17338 3.55528 17660 ft 329 kts 276°
2026-05-06 22:58 41.17637 3.52512 17228 ft 327 kts 276°
2026-05-06 22:59 41.17929 3.49543 16800 ft 326 kts 276°
2026-05-06 22:59 41.18218 3.46604 16365 ft 325 kts 277°
2026-05-06 22:59 41.18508 3.43642 15943 ft 324 kts 277°
2026-05-06 22:59 41.18798 3.40662 15519 ft 322 kts 277°
2026-05-06 23:00 41.19083 3.37735 15109 ft 321 kts 277°
2026-05-06 23:00 41.19367 3.34819 14706 ft 320 kts 276°
2026-05-06 23:00 41.19648 3.31899 14300 ft 318 kts 276°
2026-05-06 23:00 41.19929 3.28971 13886 ft 318 kts 277°
2026-05-06 23:01 41.20206 3.26084 13486 ft 317 kts 277°
2026-05-06 23:01 41.20483 3.23205 13078 ft 316 kts 277°
2026-05-06 23:01 41.20760 3.20327 12691 ft 314 kts 277°
2026-05-06 23:01 41.21034 3.17466 12304 ft 313 kts 277°
2026-05-06 23:02 41.21299 3.14587 11906 ft 311 kts 276°
2026-05-06 23:02 41.21549 3.11780 11512 ft 310 kts 276°
2026-05-06 23:02 41.21801 3.08915 11132 ft 308 kts 276°
2026-05-06 23:02 41.22047 3.06129 10758 ft 306 kts 276°
2026-05-06 23:03 41.22294 3.03315 10371 ft 305 kts 276°
2026-05-06 23:03 41.22536 3.00562 10064 ft 297 kts 276°
2026-05-06 23:03 41.22766 2.97940 10017 ft 276 kts 277°
2026-05-06 23:03 41.22982 2.95469 9957 ft 270 kts 277°
2026-05-06 23:04 41.23234 2.92984 9831 ft 273 kts 283°
2026-05-06 23:04 41.23782 2.90560 9502 ft 272 kts 289°
2026-05-06 23:04 41.24416 2.88215 9205 ft 270 kts 290°
2026-05-06 23:04 41.25046 2.85878 8895 ft 268 kts 289°
2026-05-06 23:05 41.25656 2.83546 8586 ft 267 kts 289°
2026-05-06 23:05 41.26250 2.81219 8278 ft 265 kts 289°
2026-05-06 23:05 41.26826 2.78925 7972 ft 263 kts 289°
2026-05-06 23:05 41.27399 2.76622 7669 ft 262 kts 289°
2026-05-06 23:06 41.27964 2.74331 7379 ft 260 kts 289°
2026-05-06 23:06 41.28524 2.72057 7085 ft 258 kts 289°
2026-05-06 23:06 41.29081 2.69786 6793 ft 256 kts 289°
2026-05-06 23:06 41.29629 2.67549 6501 ft 255 kts 289°
2026-05-06 23:07 41.30174 2.65320 6214 ft 253 kts 289°
2026-05-06 23:07 41.30719 2.63088 5940 ft 252 kts 288°
2026-05-06 23:07 41.31257 2.60879 5653 ft 251 kts 289°
2026-05-06 23:07 41.31790 2.58688 5369 ft 249 kts 289°
2026-05-06 23:08 41.32318 2.56517 5086 ft 248 kts 289°
2026-05-06 23:08 41.32848 2.54336 4803 ft 247 kts 289°
2026-05-06 23:08 41.33371 2.52180 4528 ft 246 kts 289°
2026-05-06 23:08 41.33895 2.50019 4256 ft 246 kts 289°
2026-05-06 23:09 41.34417 2.47858 3978 ft 245 kts 289°
2026-05-06 23:09 41.34937 2.45706 3704 ft 244 kts 289°
2026-05-06 23:09 41.35459 2.43547 3423 ft 244 kts 289°
2026-05-06 23:09 41.35976 2.41403 3152 ft 243 kts 289°
2026-05-06 23:10 41.36489 2.39280 2885 ft 242 kts 289°
2026-05-06 23:10 41.37006 2.37137 2613 ft 242 kts 289°
2026-05-06 23:10 41.37516 2.35021 2352 ft 241 kts 289°
2026-05-06 23:10 41.37906 2.32871 2263 ft 234 kts 272°
2026-05-06 23:11 41.37637 2.30835 2257 ft 219 kts 248°
2026-05-06 23:11 41.37032 2.29035 2251 ft 205 kts 245°
2026-05-06 23:11 41.36416 2.27318 2262 ft 204 kts 245°
2026-05-06 23:11 41.35817 2.25626 2264 ft 203 kts 245°
2026-05-06 23:12 41.35223 2.23909 2198 ft 198 kts 246°
2026-05-06 23:12 41.34671 2.22302 1957 ft 184 kts 246°
2026-05-06 23:12 41.34158 2.20809 1697 ft 175 kts 246°
2026-05-06 23:12 41.33663 2.19371 1453 ft 165 kts 246°
2026-05-06 23:13 41.33199 2.18022 1231 ft 155 kts 246°
2026-05-06 23:13 41.32756 2.16734 1052 ft 148 kts 246°
2026-05-06 23:13 41.32345 2.15541 859 ft 138 kts 246°
2026-05-06 23:13 41.31948 2.14386 681 ft 136 kts 246°
2026-05-06 23:14 41.31560 2.13257 503 ft 135 kts 246°
2026-05-06 23:14 41.31174 2.12130 321 ft 134 kts 246°
2026-05-06 23:14 41.30785 2.11002 138 ft 133 kts 246°
2026-05-06 23:14 41.30400 2.09897 21 ft 131 kts 246°
2026-05-06 23:15 41.30085 2.08963 15 ft 70 kts 249°
2026-05-06 23:15 41.30088 2.08520 19 ft 27 kts 315°
2026-05-06 23:15 41.30251 2.08468 21 ft 22 kts 334°
2026-05-06 23:15 41.30353 2.08344 25 ft 16 kts 303°
2026-05-06 23:16 41.30366 2.08320 25 ft 0 kts 307°